[[{"header":{"parameterUnit":"m.s-1","parameterCategory":2,"la1":30.2991,"la2":30.254,"lo1":-89.0895,"lo2":-89.0444,"dy":0.0017,"dx":0.0017,"nx":28,"ny":28,"refTime":"2025-05-27T21:00:00:Z","depth":"0","parameterNumber":2,"parameterNumberName":"U-component_of_CURRENTS"},"data":[0,0,0,0,0,0,0,0,0,0,0,0,0,0,0,0,0,0,0,0,0,0,0,0,0,0,0,0,0,0,0,0,0,0,0,0,0,0,0,0,0,0,0,0,0,0,0,0,0,0,0,0,0,0,0,0,0,0,0.2449,0.245,0,0.2477,0.2477,0.2477,0.2458,0.2457,0.2456,0.2456,0.2456,0.2457,0.2458,0,0,0,0,0,0,0,0,0,0,0,0,0,0.2387,0.2388,0.2449,0.245,0.245,0.2477,0.2477,0.2478,0.2458,0.2457,0.2456,0.2455,0.2456,0.2457,0.2458,0,0,0,0,0,0,0,0,0,0,0,0,0,0.2413,0.2388,0.2449,0.2445,0.2445,0.2477,0.2477,0.2478,0.2458,0.2457,0.2456,0.2455,0.2456,0.2457,0.2458,0.2485,0,0,0.2461,0.2461,0,0,0,0,0,0,0,0,0.2411,0.2415,0.2445,0.2446,0.2446,0.2465,0.2456,0.2479,0.2458,0.2451,0.2456,0.2455,0.2459,0.2459,0.2465,0.2485,0.2485,0.2461,0.2462,0.2462,0.2462,0,0,0,0,0,0,0,0.2409,0.2413,0.2459,0.2446,0.2446,0.2445,0.2447,0.246,0.2459,0.2452,0.2451,0.2457,0.2458,0.2464,0.2464,0.2485,0.2461,0.2462,0.2462,0.2463,0.2523,0.2524,0,0,0,0,0,0,0.2411,0.2412,0.2458,0.246,0.2428,0.2447,0.2449,0.2458,0.2459,0.2459,0.2458,0.2456,0.2463,0.2463,0.2464,0.2497,0.2462,0.2463,0.2464,0.2522,0.2523,0.2524,0,0,0,0,0,0,0.2409,0.2415,0.2457,0.2437,0.2443,0.2449,0.2459,0.2459,0.2465,0.2465,0.2463,0.2464,0.2462,0.2463,0.2478,0.2496,0.2463,0.2464,0.2521,0.2522,0.2523,0.2561,0,0,0,0,0,0,0.2408,0.2414,0.2421,0.2438,0.2444,0.2476,0.2461,0.2461,0.2471,0.2469,0.2469,0.2468,0.2461,0.2476,0.2479,0.2497,0.2465,0.2519,0.2521,0.2523,0.2559,0.2564,0.2568,0,0,0,0,0,0.2405,0.2417,0.2422,0.2427,0.2454,0.2477,0.248,0.2479,0.2473,0.2479,0.2479,0.2468,0.2489,0.2478,0.2481,0.25,0.2518,0.2521,0.2523,0.2557,0.2563,0.2568,0,0,0,0,0,0,0.2392,0.2417,0.2422,0.2441,0.2459,0.2474,0.2482,0.2485,0.2492,0.2489,0.2483,0.2482,0.2505,0.2499,0.2486,0.2523,0.2502,0.2505,0.2527,0.2533,0.2537,0.264,0.2466,0,0,0,0,0,0.2396,0.241,0.2434,0.2449,0.2461,0.2474,0.2484,0.2487,0.2496,0.2498,0.25,0.2504,0.2519,0.2521,0.2532,0.2552,0.2658,0.2565,0.257,0.2574,0.266,0.2862,0.2896,0.2531,0.2531,0.2531,0,0,0.2394,0.241,0.2418,0.2447,0.2461,0.2479,0.2477,0.2496,0.2514,0.2499,0.252,0.2525,0.253,0.2552,0.2561,0.2546,0.2716,0.2577,0.258,0.2666,0.2869,0.2905,0.2938,0.2533,0.2533,0.2532,0,0,0.2393,0.2416,0.2424,0.2443,0.247,0.2486,0.2494,0.2515,0.2529,0.2548,0.2551,0.2595,0.2575,0.262,0.2629,0.2676,0.274,0.2638,0.2743,0.2935,0.2969,0.3001,0.312,0.3162,0.2633,0.2633,0.2634,0,0.2388,0.2414,0.2431,0.2446,0.2476,0.249,0.2518,0.2532,0.2554,0.2608,0.2554,0.2651,0.263,0.2737,0.2736,0.2696,0.2796,0.2712,0.2949,0.2983,0.3015,0.313,0.3177,0.2636,0.2635,0.2635,0.2635,0,0.2393,0.2419,0.243,0.246,0.2489,0.2519,0.2551,0.2592,0.2605,0.2639,0.2745,0.2752,0.2837,0.28,0.2773,0.2972,0.2962,0.2938,0.2947,0.3056,0.3166,0.3214,0.2639,0.2638,0.2637,0.2637,0,0,0.2373,0.2427,0.2428,0.2474,0.2512,0.2551,0.2601,0.2692,0.2787,0.2797,0.2943,0.2957,0.3014,0.3037,0.3029,0.3169,0.3414,0.3149,0.3158,0.3291,0.382,0.3699,0.3739,0.3441,0.3451,0.3458,0.3784,0,0.2381,0.2434,0.2451,0.252,0.2572,0.2624,0.2694,0.2778,0.2844,0.2979,0.305,0.3158,0.3083,0.3145,0.3282,0.3391,0.3554,0.3328,0.368,0.369,0.3592,0.3797,0.3665,0.3938,0.3832,0.384,0.3845,0,0.2389,0.2435,0.251,0.2629,0.2658,0.2701,0.2885,0.2945,0.3121,0.318,0.3326,0.3385,0.3581,0.3501,0.3829,0.3689,0.3798,0.387,0.3883,0.3822,0.3664,0.3825,0.403,0.3919,0.3919,0.3913,0.3908,0,0.2433,0.2488,0.2571,0.26,0.2718,0.2793,0.2866,0.3029,0.313,0.3346,0.3454,0.3674,0.3786,0.4005,0.4092,0.4019,0.4444,0.4354,0.4363,0.4351,0.4343,0.4314,0.4522,0.4681,0.468,0.4679,0.4678,0,0.2481,0.2556,0.2601,0.2664,0.2807,0.2853,0.3035,0.3144,0.3311,0.3447,0.3581,0.3728,0.3931,0.4136,0.4243,0.4443,0.458,0.4483,0.4483,0.4334,0.4302,0.4282,0.4183,0.4691,0.4689,0.4686,0.4684,0,0.2585,0.2595,0.2716,0.2814,0.2849,0.297,0.3114,0.3214,0.3375,0.3565,0.3642,0.3845,0.4095,0.4273,0.4594,0.4604,0.4696,0.4851,0.461,0.4575,0.4435,0.4339,0.443,0.4294,0.4975,0.4975,0.4974,0,0.2682,0.2729,0.2834,0.2866,0.2921,0.3054,0.312,0.3262,0.3334,0.3606,0.3676,0.3968,0.4121,0.4516,0.4641,0.4882,0.472,0.486,0.4711,0.4504,0.4402,0.4162,0.4023,0.4697,0.4694,0.4692,0.4691,0,0.2839,0.2848,0.2908,0.2969,0.3024,0.3098,0.3179,0.325,0.3387,0.3537,0.3695,0.3861,0.4207,0.437,0.4643,0.4756,0.4602,0.4821,0.4742,0.4354,0.399,0.3827,0.4334,0.4673,0.4675,0.4676,0.4677,0.4678,0.2932,0.2977,0.297,0.3034,0.3063,0.3051,0.3088,0.3133,0.3243,0.3387,0.3592,0.379,0.4106,0.4465,0.4547,0.4573,0.4484,0.4504,0.4456,0.4269,0.4,0.4416,0.464,0.4642,0.4643,0.4644,0.4645,0,0.2951,0.2941,0.2999,0.3003,0.297,0.301,0.3028,0.3005,0.3041,0.3254,0.3395,0.3733,0.3946,0.4192,0.4353,0.425,0.4053,0.4152,0.3846,0.3763,0.4316,0.416,0.4126,0.4126,0.4126,0.4126,0.4126,0.4126,0.2942,0.2928,0.2928,0.2859,0.2845,0.2759,0.2736,0.2735,0.2835,0.2993,0.3188,0.3417,0.3811,0.4108,0.4103,0.4003,0.3675,0.3516,0.3461,0.3899,0.3927,0.3954,0.3791,0.3679,0.3679,0.2781,0.2775,0.277]},{"header":{"parameterUnit":"m.s-1","parameterCategory":2,"la1":30.2991,"la2":30.254,"lo1":-89.0895,"lo2":-89.0444,"dy":0.0017,"dx":0.0017,"nx":28,"ny":28,"refTime":"2025-05-27T21:00:00:Z","depth":"0","parameterNumber":3,"parameterNumberName":"V-component_of_CURRENTS"},"data":[0,0,0,0,0,0,0,0,0,0,0,0,0,0,0,0,0,0,0,0,0,0,0,0,0,0,0,0,0,0,0,0,0,0,0,0,0,0,0,0,0,0,0,0,0,0,0,0,0,0,0,0,0,0,0,0,0,0,-0.0265,-0.0267,0,-0.038,-0.0381,-0.0383,-0.0452,-0.0452,-0.0453,-0.0453,-0.0592,-0.0595,-0.0599,0,0,0,0,0,0,0,0,0,0,0,0,0,-0.0154,-0.0155,-0.0265,-0.0267,-0.0268,-0.038,-0.0381,-0.0383,-0.0452,-0.0452,-0.0453,-0.0453,-0.0591,-0.0595,-0.0599,0,0,0,0,0,0,0,0,0,0,0,0,0,-0.0229,-0.0156,-0.0265,-0.0315,-0.0321,-0.0379,-0.0382,-0.0384,-0.0452,-0.0452,-0.0453,-0.0453,-0.0589,-0.0594,-0.06,-0.0624,0,0,-0.0616,-0.0618,0,0,0,0,0,0,0,0,-0.0225,-0.0233,-0.0306,-0.0312,-0.0318,-0.0401,-0.0393,-0.0465,-0.0452,-0.0403,-0.0453,-0.0453,-0.053,-0.054,-0.0561,-0.0631,-0.0637,-0.0616,-0.0619,-0.0621,-0.0623,0,0,0,0,0,0,0,-0.0219,-0.0229,-0.0312,-0.0308,-0.0315,-0.0348,-0.0359,-0.0407,-0.0464,-0.0407,-0.0413,-0.0424,-0.0533,-0.0556,-0.0565,-0.0639,-0.0616,-0.062,-0.0624,-0.0626,-0.0716,-0.0715,0,0,0,0,0,0,-0.0201,-0.0224,-0.0308,-0.0315,-0.027,-0.035,-0.0362,-0.0375,-0.0463,-0.0476,-0.0423,-0.0427,-0.0547,-0.0559,-0.057,-0.0552,-0.0621,-0.0626,-0.0629,-0.0716,-0.0716,-0.0715,0,0,0,0,0,0,-0.0198,-0.0207,-0.0303,-0.0271,-0.0286,-0.0351,-0.0365,-0.0377,-0.0398,-0.0475,-0.0489,-0.0432,-0.0548,-0.0563,-0.0604,-0.056,-0.0629,-0.0633,-0.0717,-0.0716,-0.0715,-0.055,0,0,0,0,0,0,-0.0194,-0.0206,-0.0207,-0.027,-0.0287,-0.033,-0.0365,-0.0379,-0.0404,-0.041,-0.0487,-0.05,-0.0549,-0.0595,-0.0609,-0.0569,-0.0637,-0.0718,-0.0717,-0.0716,-0.0557,-0.0544,-0.0533,0,0,0,0,0,-0.019,-0.0193,-0.0206,-0.0216,-0.0287,-0.033,-0.0341,-0.039,-0.0404,-0.041,-0.0457,-0.0498,-0.0596,-0.0599,-0.0615,-0.0575,-0.0719,-0.0717,-0.0716,-0.0562,-0.0546,-0.0533,0,0,0,0,0,0,-0.0147,-0.0202,-0.0218,-0.0237,-0.0274,-0.0341,-0.0353,-0.0381,-0.0424,-0.0428,-0.0495,-0.0512,-0.0531,-0.0585,-0.0586,-0.0601,-0.0662,-0.0663,-0.0539,-0.0525,-0.0514,-0.0407,-0.0642,0,0,0,0,0,-0.0135,-0.0152,-0.0204,-0.0219,-0.0233,-0.0288,-0.031,-0.0341,-0.0388,-0.0408,-0.0458,-0.0508,-0.0537,-0.0556,-0.0605,-0.0615,-0.0588,-0.0601,-0.0589,-0.0578,-0.0504,-0.0414,-0.0383,-0.0709,-0.0709,-0.0709,0,0,-0.0123,-0.0155,-0.0164,-0.021,-0.0243,-0.0251,-0.0303,-0.0331,-0.0322,-0.0416,-0.0423,-0.0475,-0.0535,-0.0542,-0.0554,-0.0578,-0.0484,-0.0576,-0.0565,-0.0496,-0.0408,-0.0375,-0.0346,-0.0708,-0.0709,-0.0709,0,0,-0.0104,-0.0131,-0.0136,-0.0158,-0.0199,-0.0226,-0.0227,-0.0284,-0.0291,-0.0316,-0.0361,-0.0363,-0.0456,-0.0444,-0.046,-0.041,-0.0429,-0.0458,-0.0298,-0.0213,-0.0182,-0.0156,-0.0117,-0.0088,-0.0444,-0.0443,-0.0443,0,-0.0084,-0.0085,-0.0142,-0.0146,-0.0131,-0.0205,-0.0175,-0.0207,-0.0265,-0.0215,-0.0302,-0.0304,-0.0385,-0.0295,-0.0296,-0.037,-0.0344,-0.0345,-0.0187,-0.016,-0.0135,-0.0102,-0.0071,-0.0435,-0.0436,-0.0437,-0.0438,0,-0.0067,-0.0056,-0.0057,-0.007,-0.007,-0.0061,-0.0091,-0.0079,-0.0101,-0.0102,-0.0037,-0.0122,-0.0087,-0.0144,-0.0217,-0.0072,-0.0122,-0.0184,-0.0203,-0.009,-0.0066,-0.0037,-0.0424,-0.0427,-0.0429,-0.0431,0,0,-0.0031,-0.0036,-0.0031,0.0032,-0.0008,0.0022,0.0047,0.0112,0.0219,0.0142,0.0301,0.0216,0.0218,0.0204,0.0134,0.0183,0.0321,0.0081,0.0081,0.0158,0.0497,0.0449,0.0474,0.0292,0.0299,0.0304,0.0431,0,0.0022,0.0086,0.0053,0.0156,0.0219,0.0202,0.0269,0.0317,0.0339,0.0456,0.0435,0.051,0.0335,0.0378,0.0406,0.0356,0.0411,0.0292,0.0345,0.0348,0.0325,0.0512,0.0319,0.0417,0.0459,0.0464,0.0467,0,0.008,0.013,0.0248,0.0385,0.0414,0.0464,0.0656,0.0697,0.0811,0.0837,0.0915,0.0882,0.096,0.0778,0.0819,0.0751,0.0662,0.0594,0.0597,0.0539,0.0358,0.0314,0.0467,0.0208,0.0511,0.0508,0.0504,0,0.0241,0.0299,0.0436,0.0464,0.0564,0.0669,0.0738,0.0853,0.0972,0.1114,0.1219,0.1272,0.1307,0.1263,0.106,0.0979,0.1084,0.0952,0.0836,0.0827,0.0674,0.0643,0.063,0.103,0.103,0.1029,0.1029,0,0.0376,0.0501,0.0536,0.063,0.085,0.0854,0.111,0.1176,0.1326,0.152,0.1453,0.159,0.1428,0.142,0.1243,0.1146,0.1235,0.0952,0.0906,0.0714,0.0687,0.0459,0.0315,0.1034,0.1033,0.1032,0.1031,0,0.0601,0.0592,0.0781,0.0897,0.0946,0.113,0.1322,0.1494,0.1586,0.184,0.19,0.1882,0.1843,0.1659,0.1554,0.1377,0.1127,0.1207,0.0968,0.0894,0.0564,0.0436,0.0462,0.0356,0.1179,0.1179,0.118,0,0.0757,0.0856,0.1003,0.1096,0.1167,0.1383,0.1528,0.1643,0.1811,0.2017,0.216,0.2157,0.2179,0.1993,0.1593,0.1351,0.1121,0.1088,0.0919,0.0616,0.0438,0.0343,0.0244,0.0744,0.0741,0.0738,0.0736,0,0.1047,0.1071,0.1196,0.1366,0.1519,0.1718,0.1922,0.2085,0.2234,0.2416,0.2602,0.2636,0.2321,0.196,0.1556,0.1323,0.0864,0.103,0.0792,0.0216,0.0043,-0.0112,0.0551,0.0712,0.0714,0.0716,0.0717,0.0718,0.126,0.1389,0.1471,0.165,0.1805,0.2006,0.2185,0.2373,0.2635,0.2883,0.2915,0.2991,0.237,0.173,0.1373,0.0562,0.0651,0.0364,0.0269,0.0231,0.0046,0.0668,0.0726,0.0728,0.073,0.0732,0.0734,0,0.1475,0.1548,0.1727,0.1905,0.2071,0.2114,0.2399,0.2555,0.2828,0.3058,0.3224,0.2976,0.2221,0.1472,0.0355,-0.0107,-0.0336,-0.0334,-0.0572,-0.0606,-0.0009,-0.0119,-0.0333,-0.0333,-0.0333,-0.0333,-0.0332,-0.0332,0.1581,0.1739,0.1805,0.2068,0.2187,0.2422,0.2574,0.2792,0.2993,0.3242,0.3298,0.331,0.2629,0.0734,-0.053,-0.0797,-0.1113,-0.1225,-0.1227,-0.0951,-0.0896,-0.0844,-0.098,-0.1371,-0.1372,-0.1891,-0.1896,-0.1901]}],[{"header":{"parameterUnit":"m.s-1","parameterCategory":2,"la1":30.2991,"la2":30.254,"lo1":-89.0895,"lo2":-89.0444,"dy":0.0017,"dx":0.0017,"nx":28,"ny":28,"refTime":"2025-05-27T21:00:00:Z","depth":"2","parameterNumber":2,"parameterNumberName":"U-component_of_CURRENTS"},"data":[0,0,0,0,0,0,0,0,0,0,0,0,0,0,0,0,0,0,0,0,0,0,0,0,0,0,0,0,0,0,0,0,0,0,0,0,0,0,0,0,0,0,0,0,0,0,0,0,0,0,0,0,0,0,0,0,0,0,0.2394,0.2395,0,0.2456,0.2457,0.2457,0.2468,0.2468,0.2467,0.2467,0.2469,0.2469,0.2469,0,0,0,0,0,0,0,0,0,0,0,0,0,0.2276,0.2278,0.2394,0.2395,0.2396,0.2456,0.2457,0.2457,0.2468,0.2468,0.2467,0.2467,0.2469,0.2469,0.247,0,0,0,0,0,0,0,0,0,0,0,0,0,0.2329,0.2278,0.2393,0.241,0.2413,0.2456,0.2457,0.2458,0.2468,0.2468,0.2467,0.2467,0.2469,0.2469,0.247,0.2481,0,0,0.2471,0.2471,0,0,0,0,0,0,0,0,0.2326,0.2333,0.2407,0.2409,0.2412,0.2456,0.2416,0.2463,0.2468,0.2444,0.2467,0.2467,0.2461,0.2462,0.2472,0.2481,0.2481,0.2471,0.2471,0.2471,0.2472,0,0,0,0,0,0,0,0.2322,0.233,0.2416,0.2408,0.2411,0.2413,0.2419,0.2425,0.2451,0.2446,0.2448,0.2459,0.2462,0.2471,0.2472,0.2481,0.2471,0.2471,0.2472,0.2472,0.2504,0.2505,0,0,0,0,0,0,0.2321,0.2327,0.2414,0.2418,0.237,0.2415,0.2423,0.244,0.2452,0.2455,0.246,0.246,0.2471,0.2471,0.2472,0.2506,0.2471,0.2472,0.2472,0.2504,0.2504,0.2505,0,0,0,0,0,0,0.2319,0.2329,0.2411,0.2375,0.2386,0.2418,0.2437,0.2442,0.2454,0.2464,0.2464,0.2468,0.2471,0.2471,0.2482,0.2505,0.2472,0.2472,0.2503,0.2504,0.2505,0.2561,0,0,0,0,0,0,0.2315,0.2327,0.2338,0.2376,0.2388,0.2439,0.2438,0.2443,0.2463,0.2463,0.2471,0.2471,0.247,0.2481,0.2482,0.2505,0.2473,0.2502,0.2503,0.2504,0.2559,0.2564,0.2569,0,0,0,0,0,0.2311,0.232,0.2338,0.2348,0.2402,0.244,0.2446,0.2465,0.2464,0.2473,0.2478,0.2471,0.2489,0.2482,0.2483,0.2507,0.2502,0.2503,0.2504,0.2557,0.2563,0.2568,0,0,0,0,0,0,0.2264,0.2324,0.2343,0.2369,0.2406,0.2443,0.2453,0.2467,0.248,0.2476,0.2479,0.248,0.2498,0.2491,0.2483,0.2518,0.2493,0.2495,0.2533,0.2539,0.2544,0.2607,0.2473,0,0,0,0,0,0.2264,0.2291,0.2345,0.2364,0.2385,0.2421,0.2437,0.2454,0.2473,0.2478,0.2486,0.2491,0.2505,0.2512,0.2516,0.2536,0.2589,0.255,0.2555,0.256,0.2611,0.2707,0.2727,0.2509,0.2509,0.2509,0,0,0.225,0.2287,0.2301,0.2357,0.2386,0.2418,0.2429,0.2456,0.2482,0.2476,0.2501,0.2507,0.2512,0.2537,0.2544,0.2535,0.2644,0.2561,0.2565,0.2615,0.2711,0.2733,0.2752,0.251,0.251,0.251,0,0,0.2236,0.2273,0.2294,0.2329,0.238,0.241,0.242,0.2464,0.2484,0.2511,0.2517,0.2556,0.2549,0.2589,0.26,0.2638,0.2665,0.2612,0.2696,0.2787,0.2808,0.2826,0.2909,0.2935,0.2618,0.2618,0.2618,0,0.2217,0.2266,0.2302,0.2332,0.2374,0.2408,0.2447,0.2468,0.2507,0.2558,0.2519,0.2603,0.2591,0.2681,0.2685,0.2657,0.2706,0.2672,0.2799,0.2819,0.2837,0.2918,0.2945,0.2621,0.262,0.262,0.262,0,0.2227,0.2269,0.2284,0.2346,0.2384,0.2424,0.2473,0.2514,0.254,0.2586,0.2674,0.2681,0.2754,0.2734,0.2717,0.284,0.2832,0.2793,0.2794,0.2863,0.2942,0.297,0.2625,0.2624,0.2623,0.2622,0,0,0.2187,0.2279,0.2285,0.2348,0.2408,0.2456,0.2504,0.2605,0.2687,0.2712,0.284,0.2854,0.2898,0.2917,0.2913,0.2981,0.3123,0.2943,0.2946,0.3045,0.3333,0.3126,0.3137,0.3103,0.3108,0.3112,0.3333,0,0.2199,0.2282,0.2313,0.2402,0.2471,0.2529,0.2592,0.2679,0.2744,0.2864,0.2926,0.3014,0.2952,0.3001,0.3068,0.3106,0.3201,0.3068,0.3237,0.3243,0.3067,0.3164,0.2936,0.3096,0.336,0.3365,0.3368,0,0.222,0.2282,0.2377,0.2514,0.2547,0.2592,0.2759,0.2819,0.2973,0.3033,0.3149,0.3188,0.3313,0.3236,0.3397,0.3311,0.3353,0.3374,0.3381,0.3202,0.3089,0.307,0.3137,0.3415,0.3411,0.3408,0.3405,0,0.2252,0.2344,0.2441,0.2478,0.2609,0.2674,0.2749,0.2887,0.2979,0.316,0.3242,0.3389,0.347,0.3549,0.3536,0.3503,0.3691,0.3652,0.3531,0.3517,0.3367,0.3328,0.3823,0.3823,0.3822,0.3822,0.3821,0,0.2302,0.2382,0.2467,0.2528,0.2646,0.2727,0.2867,0.2965,0.3129,0.3228,0.3339,0.343,0.3551,0.3628,0.3635,0.3638,0.3776,0.3595,0.3574,0.337,0.3331,0.3633,0.3608,0.383,0.3828,0.3826,0.3825,0,0.2352,0.2409,0.2515,0.2631,0.2673,0.2759,0.2905,0.2982,0.3152,0.3286,0.3345,0.3528,0.3603,0.3666,0.3798,0.374,0.3771,0.3743,0.3475,0.3415,0.3538,0.3514,0.371,0.3705,0.3701,0.3697,0.3694,0,0.242,0.2462,0.2563,0.2571,0.2619,0.2738,0.2787,0.2978,0.3036,0.3287,0.3324,0.3501,0.3513,0.3629,0.3608,0.3628,0.3697,0.3414,0.3305,0.3575,0.3536,0.3517,0.3499,0.3154,0.3147,0.3141,0.3137,0,0.2455,0.2455,0.2485,0.2525,0.256,0.2647,0.2731,0.2807,0.2987,0.3098,0.3218,0.3279,0.3387,0.3308,0.3319,0.328,0.338,0.3289,0.3707,0.3156,0.3051,0.301,0.3012,0.3084,0.3089,0.3093,0.3096,0.3098,0.239,0.2393,0.2368,0.2404,0.245,0.2501,0.2533,0.261,0.2722,0.28,0.295,0.2944,0.3053,0.2938,0.2872,0.2857,0.3078,0.2982,0.3003,0.3029,0.2864,0.2749,0.2698,0.2701,0.2704,0.2706,0.2708,0,0.2217,0.2217,0.2236,0.2242,0.2243,0.2354,0.2427,0.2403,0.2441,0.2508,0.2542,0.2376,0.2362,0.2473,0.24,0.2406,0.24,0.2302,0.2323,0.2378,0.2426,0.2229,0.1897,0.1894,0.1891,0.1889,0,0,0.2087,0.2007,0.204,0.1999,0.2049,0.2048,0.2079,0.2073,0.2105,0.2008,0.2001,0.2118,0.2347,0.2065,0.2075,0.1984,0.2136,0.1887,0.2546,0.2621,0.2665,0.2836,0.2596,0,0,0,0,0]},{"header":{"parameterUnit":"m.s-1","parameterCategory":2,"la1":30.2991,"la2":30.254,"lo1":-89.0895,"lo2":-89.0444,"dy":0.0017,"dx":0.0017,"nx":28,"ny":28,"refTime":"2025-05-27T21:00:00:Z","depth":"2","parameterNumber":3,"parameterNumberName":"V-component_of_CURRENTS"},"data":[0,0,0,0,0,0,0,0,0,0,0,0,0,0,0,0,0,0,0,0,0,0,0,0,0,0,0,0,0,0,0,0,0,0,0,0,0,0,0,0,0,0,0,0,0,0,0,0,0,0,0,0,0,0,0,0,0,0,-0.0528,-0.0529,0,-0.0608,-0.0609,-0.061,-0.0689,-0.069,-0.0691,-0.0691,-0.0821,-0.0823,-0.0826,0,0,0,0,0,0,0,0,0,0,0,0,0,-0.048,-0.048,-0.0528,-0.0529,-0.053,-0.0608,-0.0609,-0.061,-0.0689,-0.069,-0.0691,-0.0692,-0.082,-0.0823,-0.0826,0,0,0,0,0,0,0,0,0,0,0,0,0,-0.0525,-0.048,-0.0528,-0.0578,-0.0583,-0.0608,-0.0609,-0.0611,-0.0688,-0.069,-0.0691,-0.0692,-0.0819,-0.0823,-0.0826,-0.0822,0,0,-0.0838,-0.084,0,0,0,0,0,0,0,0,-0.0523,-0.0527,-0.0569,-0.0574,-0.058,-0.0639,-0.0639,-0.0683,-0.0688,-0.0649,-0.0692,-0.0693,-0.0763,-0.0771,-0.0784,-0.0828,-0.0834,-0.0839,-0.0841,-0.0843,-0.0844,0,0,0,0,0,0,0,-0.0519,-0.0524,-0.0561,-0.057,-0.0577,-0.0608,-0.0616,-0.0648,-0.0699,-0.0653,-0.0659,-0.0665,-0.0766,-0.078,-0.0788,-0.0836,-0.0838,-0.0842,-0.0844,-0.0846,-0.0945,-0.0945,0,0,0,0,0,0,-0.0504,-0.0521,-0.0558,-0.0563,-0.0553,-0.0608,-0.0617,-0.0619,-0.0698,-0.071,-0.0664,-0.0668,-0.0773,-0.0783,-0.0793,-0.0797,-0.0842,-0.0846,-0.0848,-0.0945,-0.0945,-0.0946,0,0,0,0,0,0,-0.0502,-0.0506,-0.0555,-0.0543,-0.0552,-0.0607,-0.061,-0.062,-0.0651,-0.0705,-0.072,-0.0685,-0.0774,-0.0787,-0.0834,-0.0803,-0.0848,-0.0851,-0.0944,-0.0945,-0.0945,-0.0804,0,0,0,0,0,0,-0.05,-0.0505,-0.0507,-0.0542,-0.0552,-0.0572,-0.0609,-0.0621,-0.0651,-0.0658,-0.0728,-0.074,-0.0776,-0.0828,-0.0838,-0.0809,-0.0854,-0.0944,-0.0945,-0.0945,-0.0808,-0.0799,-0.0792,0,0,0,0,0,-0.0498,-0.049,-0.0506,-0.0511,-0.0551,-0.0571,-0.0579,-0.0624,-0.065,-0.0658,-0.071,-0.0739,-0.0839,-0.0831,-0.0842,-0.0814,-0.0944,-0.0944,-0.0945,-0.0812,-0.0801,-0.0792,0,0,0,0,0,0,-0.047,-0.0498,-0.0517,-0.0518,-0.0544,-0.0584,-0.0595,-0.0625,-0.067,-0.0685,-0.074,-0.0756,-0.0792,-0.0831,-0.0821,-0.0852,-0.0897,-0.09,-0.0792,-0.0782,-0.0774,-0.071,-0.0858,0,0,0,0,0,-0.0462,-0.0467,-0.0497,-0.0501,-0.0511,-0.0554,-0.0571,-0.0601,-0.0642,-0.0665,-0.0713,-0.0766,-0.08,-0.0814,-0.0866,-0.0869,-0.0909,-0.0865,-0.0857,-0.0849,-0.0809,-0.0868,-0.086,-0.0948,-0.0948,-0.0948,0,0,-0.0454,-0.0469,-0.0473,-0.0496,-0.0521,-0.0528,-0.0569,-0.0592,-0.0591,-0.067,-0.0695,-0.075,-0.0804,-0.0817,-0.0834,-0.0842,-0.0849,-0.085,-0.0843,-0.0806,-0.0868,-0.0858,-0.085,-0.0949,-0.0948,-0.0948,0,0,-0.0435,-0.045,-0.0449,-0.0465,-0.0498,-0.0516,-0.0522,-0.0567,-0.0579,-0.0607,-0.0662,-0.0683,-0.0758,-0.0759,-0.0773,-0.075,-0.0819,-0.0792,-0.0672,-0.073,-0.0722,-0.0715,-0.0754,-0.0752,-0.0768,-0.0768,-0.0768,0,-0.0426,-0.042,-0.0452,-0.0455,-0.045,-0.0507,-0.0491,-0.0512,-0.0568,-0.0539,-0.0606,-0.0664,-0.0712,-0.0677,-0.0668,-0.0721,-0.0778,-0.0695,-0.0714,-0.0708,-0.0704,-0.0746,-0.0745,-0.0761,-0.0762,-0.0762,-0.0763,0,-0.0407,-0.0402,-0.04,-0.0413,-0.0415,-0.0412,-0.0432,-0.0429,-0.0456,-0.0463,-0.0461,-0.0534,-0.0541,-0.0576,-0.0608,-0.0584,-0.0644,-0.0709,-0.0723,-0.0685,-0.0734,-0.0735,-0.0751,-0.0754,-0.0756,-0.0757,0,0,-0.038,-0.0381,-0.0383,-0.0347,-0.0381,-0.036,-0.0343,-0.0301,-0.0249,-0.0318,-0.0252,-0.0307,-0.0333,-0.0351,-0.0408,-0.0447,-0.0461,-0.0548,-0.0555,-0.0557,-0.059,-0.0604,-0.0608,-0.0551,-0.055,-0.055,-0.0635,0,-0.035,-0.0304,-0.0328,-0.027,-0.0229,-0.0245,-0.0189,-0.0161,-0.0177,-0.0138,-0.0172,-0.0167,-0.0253,-0.0254,-0.0299,-0.0438,-0.0462,-0.0431,-0.0651,-0.0656,-0.0648,-0.0608,-0.0564,-0.0634,-0.0637,-0.0638,-0.0638,0,-0.0313,-0.0277,-0.02,-0.0111,-0.0092,-0.006,0.005,0.008,0.012,0.0114,0.0106,0.0037,0.0019,-0.0095,-0.0258,-0.025,-0.0379,-0.0499,-0.0507,-0.0559,-0.0671,-0.0677,-0.0638,-0.0642,-0.0641,-0.0641,-0.0641,0,-0.0206,-0.0173,-0.008,-0.0066,0.0007,0.0079,0.0131,0.0185,0.0241,0.0269,0.0266,0.0221,0.0188,0.0009,-0.0235,-0.025,-0.0463,-0.0517,-0.0638,-0.0642,-0.0659,-0.0664,-0.061,-0.061,-0.0609,-0.0609,-0.0609,0,-0.0128,-0.0053,-0.0009,0.0049,0.0163,0.0213,0.032,0.0367,0.0444,0.0456,0.0411,0.0381,0.02,0.0036,-0.0183,-0.0419,-0.0422,-0.0586,-0.0654,-0.0611,-0.0611,-0.0668,-0.0673,-0.0612,-0.0612,-0.0611,-0.061,0,-0.0038,0.0006,0.0092,0.0183,0.0216,0.0303,0.0393,0.0452,0.0542,0.0536,0.0548,0.0528,0.0339,0.0109,-0.0167,-0.0336,-0.058,-0.0664,-0.0587,-0.0641,-0.0721,-0.0719,-0.0754,-0.0755,-0.0756,-0.0756,-0.0757,0,0.001,0.0064,0.0141,0.0153,0.0184,0.0289,0.0338,0.0477,0.0495,0.0559,0.0543,0.0485,0.0381,0.0055,-0.0224,-0.0532,-0.0597,-0.0694,-0.0683,-0.0667,-0.0731,-0.0727,-0.0724,-0.0661,-0.0661,-0.066,-0.066,0,0.0007,0.0031,0.0065,0.0136,0.0179,0.0232,0.0311,0.0386,0.0483,0.0546,0.0587,0.0573,0.0309,0.0109,-0.0237,-0.0469,-0.0632,-0.0695,-0.0721,-0.0625,-0.0585,-0.0646,-0.0645,-0.0658,-0.0658,-0.0658,-0.0659,-0.0659,-0.0071,-0.0062,-0.0017,0.0063,0.011,0.021,0.0305,0.0383,0.0544,0.0677,0.0595,0.0624,0.0378,0.0047,-0.0292,-0.0595,-0.0598,-0.0715,-0.0714,-0.0713,-0.068,-0.0644,-0.0721,-0.0722,-0.0722,-0.0723,-0.0723,0,-0.017,-0.0132,-0.0101,0.0023,0.0111,0.0171,0.0298,0.0435,0.0637,0.0692,0.0773,0.0581,0.0385,0.0103,-0.0315,-0.0604,-0.0631,-0.0704,-0.0659,-0.066,-0.0661,-0.0623,-0.065,-0.0651,-0.0651,-0.0651,0,0,-0.0247,-0.0207,-0.013,0.0019,0.0121,0.0297,0.041,0.0615,0.0743,0.0902,0.0953,0.0887,0.0527,0.0242,-0.0143,-0.0372,-0.0458,-0.0439,-0.0472,-0.0376,-0.0373,-0.0649,-0.059,0,0,0,0,0]}],[{"header":{"parameterUnit":"m.s-1","parameterCategory":2,"la1":30.2991,"la2":30.254,"lo1":-89.0895,"lo2":-89.0444,"dy":0.0017,"dx":0.0017,"nx":28,"ny":28,"refTime":"2025-05-27T21:00:00:Z","depth":"4","parameterNumber":2,"parameterNumberName":"U-component_of_CURRENTS"},"data":[0,0,0,0,0,0,0,0,0,0,0,0,0,0,0,0,0,0,0,0,0,0,0,0,0,0,0,0,0,0,0,0,0,0,0,0,0,0,0,0,0,0,0,0,0,0,0,0,0,0,0,0,0,0,0,0,0,0,0.1072,0.1072,0,0.1136,0.1137,0.1138,0.1213,0.1214,0.1215,0.1216,0.1302,0.1304,0.1305,0,0,0,0,0,0,0,0,0,0,0,0,0,0.0987,0.0988,0.1072,0.1072,0.1073,0.1136,0.1137,0.1138,0.1213,0.1214,0.1215,0.1216,0.1302,0.1304,0.1305,0,0,0,0,0,0,0,0,0,0,0,0,0,0.1037,0.0989,0.1072,0.1116,0.112,0.1136,0.1137,0.1139,0.1213,0.1214,0.1215,0.1217,0.1301,0.1303,0.1306,0.1292,0,0,0.1312,0.1313,0,0,0,0,0,0,0,0,0.1034,0.104,0.1109,0.1113,0.1118,0.1166,0.1139,0.119,0.1212,0.118,0.1216,0.1217,0.1256,0.1262,0.1275,0.1296,0.13,0.1312,0.1314,0.1315,0.1315,0,0,0,0,0,0,0,0.1031,0.1038,0.11,0.1109,0.1115,0.1123,0.1132,0.1149,0.1212,0.1183,0.1188,0.1191,0.1259,0.1272,0.1277,0.1301,0.1312,0.1314,0.1316,0.1317,0.1412,0.1413,0,0,0,0,0,0,0.1017,0.1035,0.1098,0.1102,0.1075,0.1123,0.1134,0.1151,0.1212,0.1221,0.119,0.1194,0.1268,0.1274,0.128,0.1372,0.1315,0.1317,0.1318,0.141,0.1412,0.1413,0,0,0,0,0,0,0.1016,0.1023,0.1095,0.1066,0.1076,0.1123,0.1142,0.1152,0.1189,0.1216,0.1227,0.122,0.1269,0.1277,0.1325,0.1372,0.1318,0.132,0.1409,0.1411,0.1413,0.1487,0,0,0,0,0,0,0.1013,0.1022,0.1039,0.1066,0.1077,0.1122,0.1141,0.1152,0.1186,0.1193,0.1244,0.1253,0.1271,0.1322,0.1327,0.1374,0.1321,0.1408,0.141,0.1412,0.1483,0.1492,0.1499,0,0,0,0,0,0.101,0.1011,0.104,0.1047,0.1096,0.1123,0.113,0.1168,0.1186,0.1207,0.1247,0.1252,0.134,0.1324,0.1331,0.1379,0.1406,0.1409,0.1412,0.148,0.149,0.1498,0,0,0,0,0,0,0.0977,0.102,0.1051,0.1067,0.1105,0.1135,0.1147,0.1176,0.1223,0.1241,0.1265,0.1276,0.1335,0.1338,0.1319,0.141,0.1375,0.1379,0.1425,0.1434,0.1441,0.144,0.1323,0,0,0,0,0,0.0978,0.1002,0.1043,0.1062,0.1075,0.1118,0.1135,0.1174,0.121,0.1234,0.1271,0.131,0.1345,0.1375,0.1401,0.1447,0.144,0.1481,0.1489,0.1495,0.1497,0.1528,0.1539,0.1422,0.1422,0.1422,0,0,0.0969,0.0998,0.1011,0.1058,0.1087,0.112,0.1133,0.1173,0.1218,0.1233,0.1305,0.1335,0.136,0.1422,0.1449,0.1436,0.1523,0.1498,0.1504,0.1503,0.1532,0.1543,0.1553,0.1424,0.1424,0.1423,0,0,0.0958,0.099,0.101,0.1047,0.1102,0.1129,0.1144,0.12,0.1243,0.1303,0.1335,0.139,0.1437,0.1482,0.1502,0.1559,0.1556,0.1575,0.1625,0.1656,0.1666,0.1674,0.1676,0.1684,0.1587,0.1587,0.1587,0,0.0954,0.0989,0.1018,0.1054,0.1088,0.1134,0.1175,0.1215,0.129,0.1332,0.1334,0.1438,0.1463,0.1545,0.1579,0.1579,0.1587,0.1593,0.1667,0.1675,0.1683,0.1682,0.1691,0.1591,0.1591,0.159,0.159,0,0.0962,0.1004,0.1012,0.1082,0.1123,0.1161,0.1223,0.127,0.1318,0.1376,0.1468,0.1509,0.158,0.1598,0.161,0.1694,0.1678,0.1668,0.1645,0.1699,0.1695,0.1702,0.1597,0.1595,0.1594,0.1593,0,0,0.0918,0.1005,0.1012,0.1051,0.115,0.1171,0.1247,0.1327,0.1381,0.1459,0.1531,0.1614,0.1665,0.169,0.1727,0.1755,0.1819,0.1749,0.1748,0.1752,0.1877,0.1811,0.1812,0.1833,0.1835,0.1836,0.1851,0,0.0924,0.0987,0.1039,0.1102,0.1139,0.1212,0.1285,0.1373,0.1439,0.1516,0.1587,0.1674,0.1695,0.1749,0.1789,0.181,0.1843,0.1815,0.1822,0.1821,0.1759,0.182,0.1842,0.1857,0.1858,0.1859,0.186,0,0.0917,0.0964,0.1037,0.113,0.1153,0.1218,0.1325,0.14,0.1526,0.1584,0.1687,0.1742,0.1839,0.1824,0.1903,0.1891,0.1901,0.1896,0.1896,0.1812,0.1769,0.1792,0.1873,0.1872,0.1871,0.187,0.1869,0,0.0866,0.0951,0.101,0.1045,0.1166,0.1227,0.131,0.1445,0.1514,0.1653,0.1711,0.1821,0.1894,0.192,0.1959,0.194,0.2004,0.1967,0.191,0.1904,0.1923,0.1914,0.201,0.201,0.201,0.201,0.201,0,0.0847,0.0883,0.0996,0.1029,0.1113,0.1225,0.1332,0.1423,0.1564,0.1657,0.1775,0.1843,0.1927,0.198,0.1978,0.1981,0.2035,0.1927,0.1914,0.1952,0.1946,0.1928,0.1918,0.2011,0.2011,0.201,0.201,0,0.0786,0.0861,0.0918,0.1047,0.11,0.1171,0.1342,0.1403,0.1567,0.1679,0.1734,0.1883,0.1967,0.2018,0.2059,0.2013,0.2004,0.1992,0.2035,0.2023,0.1866,0.186,0.1898,0.1896,0.1895,0.1893,0.1892,0,0.0761,0.0793,0.0914,0.0956,0.1028,0.1146,0.1233,0.1402,0.1473,0.1688,0.1727,0.1874,0.1958,0.1956,0.202,0.2017,0.2004,0.1975,0.1913,0.1876,0.186,0.1857,0.1853,0.189,0.1889,0.1889,0.1888,0,0.0701,0.0754,0.0796,0.0899,0.0985,0.1058,0.1202,0.1244,0.144,0.1574,0.1691,0.1759,0.1859,0.1902,0.1944,0.1931,0.1972,0.1957,0.1959,0.1899,0.1866,0.1851,0.1849,0.1882,0.1883,0.1884,0.1884,0,0.0644,0.0663,0.0734,0.0817,0.0905,0.0974,0.1052,0.1161,0.1261,0.1507,0.1537,0.1704,0.1838,0.186,0.1884,0.1891,0.1848,0.1765,0.1776,0.1783,0.1745,0.1686,0.1646,0,0,0,0,0,0.0577,0.0604,0.0657,0.074,0.0817,0.0887,0.1025,0.1104,0.129,0.1335,0.1441,0.1534,0.1629,0.1708,0.1689,0.182,0.1838,0.179,0.1743,0.185,0.1857,0.1827,0,0,0,0,0,0,0.0538,0.0575,0.0619,0.0656,0.0704,0.0791,0.0878,0.1,0.1042,0.1233,0.1288,0.1438,0.1539,0.162,0.1657,0.1681,0.162,0.1894,0.189,0.1847,0.1853,0.1858,0.1829,0,0,0,0,0]},{"header":{"parameterUnit":"m.s-1","parameterCategory":2,"la1":30.2991,"la2":30.254,"lo1":-89.0895,"lo2":-89.0444,"dy":0.0017,"dx":0.0017,"nx":28,"ny":28,"refTime":"2025-05-27T21:00:00:Z","depth":"4","parameterNumber":3,"parameterNumberName":"V-component_of_CURRENTS"},"data":[0,0,0,0,0,0,0,0,0,0,0,0,0,0,0,0,0,0,0,0,0,0,0,0,0,0,0,0,0,0,0,0,0,0,0,0,0,0,0,0,0,0,0,0,0,0,0,0,0,0,0,0,0,0,0,0,0,0,0.022,0.022,0,0.0213,0.0213,0.0213,0.0193,0.0193,0.0193,0.0192,0.0142,0.0141,0.014,0,0,0,0,0,0,0,0,0,0,0,0,0,0.0189,0.019,0.022,0.022,0.022,0.0213,0.0213,0.0213,0.0193,0.0193,0.0192,0.0192,0.0142,0.0141,0.014,0,0,0,0,0,0,0,0,0,0,0,0,0,0.0194,0.019,0.022,0.0209,0.0208,0.0213,0.0213,0.0213,0.0194,0.0193,0.0192,0.0192,0.0142,0.0141,0.0139,0.0143,0,0,0.0135,0.0134,0,0,0,0,0,0,0,0,0.0194,0.0195,0.0211,0.021,0.0209,0.0203,0.0183,0.0187,0.0194,0.0199,0.0192,0.0191,0.0159,0.0156,0.0156,0.014,0.0138,0.0135,0.0134,0.0133,0.0133,0,0,0,0,0,0,0,0.0194,0.0195,0.0217,0.0211,0.021,0.0196,0.0196,0.0184,0.0182,0.0199,0.0197,0.0197,0.0158,0.0158,0.0155,0.0138,0.0135,0.0134,0.0133,0.0132,0.0102,0.0102,0,0,0,0,0,0,0.0197,0.0196,0.0217,0.0217,0.02,0.0197,0.0197,0.0206,0.0183,0.0179,0.0197,0.0196,0.0161,0.0157,0.0153,0.014,0.0133,0.0132,0.0131,0.0102,0.0102,0.0102,0,0,0,0,0,0,0.0197,0.02,0.0218,0.0205,0.0207,0.0198,0.0208,0.0206,0.0204,0.0182,0.0177,0.0197,0.016,0.0155,0.0146,0.0138,0.0131,0.013,0.0102,0.0102,0.0102,0.0123,0,0,0,0,0,0,0.0196,0.02,0.021,0.0206,0.0207,0.0226,0.0209,0.0206,0.0205,0.0203,0.0181,0.0175,0.0159,0.0148,0.0144,0.0136,0.0129,0.0101,0.0102,0.0102,0.0122,0.0124,0.0125,0,0,0,0,0,0.0195,0.0223,0.0211,0.0213,0.0221,0.0227,0.0227,0.0218,0.0206,0.0212,0.0195,0.0176,0.0146,0.0148,0.0143,0.0134,0.0101,0.0102,0.0102,0.0122,0.0124,0.0125,0,0,0,0,0,0,0.0217,0.0223,0.021,0.0238,0.023,0.0224,0.0237,0.0221,0.0213,0.021,0.0183,0.0177,0.0164,0.015,0.0153,0.0125,0.0118,0.0117,0.0135,0.0136,0.0138,0.0107,0.0128,0,0,0,0,0,0.0225,0.0244,0.0237,0.0255,0.0259,0.0244,0.0245,0.0234,0.0225,0.0221,0.0204,0.0183,0.0163,0.0151,0.0138,0.0127,0.0074,0.0116,0.0117,0.0119,0.0091,-0.0002,-0.0013,0.0102,0.0102,0.0102,0,0,0.0237,0.0242,0.0252,0.026,0.0258,0.0264,0.0244,0.0251,0.0246,0.0217,0.0213,0.0191,0.0163,0.0149,0.0141,0.0135,0.0067,0.0119,0.012,0.009,-0.0003,-0.0015,-0.0026,0.0102,0.0102,0.0102,0,0,0.0271,0.0277,0.0301,0.0298,0.0296,0.0286,0.0287,0.0279,0.0269,0.0263,0.0233,0.0198,0.0191,0.0149,0.0131,0.013,0.0081,0.0138,0.0115,0.0026,0.0015,0.0004,-0.0044,-0.006,0.0135,0.0135,0.0135,0,0.0281,0.0303,0.0307,0.0322,0.0315,0.0296,0.0302,0.0298,0.0282,0.0254,0.0267,0.0194,0.018,0.0117,0.0123,0.0129,0.0084,0.0113,0.0025,0.0013,0.0002,-0.0046,-0.0063,0.0136,0.0136,0.0136,0.0136,0,0.0324,0.0335,0.0351,0.0357,0.0355,0.0359,0.0345,0.0334,0.0316,0.0286,0.023,0.0201,0.0141,0.0143,0.0137,0.0049,0.0049,0.004,0.0016,-0.0009,-0.0056,-0.0075,0.0137,0.0137,0.0137,0.0136,0,0,0.0353,0.0376,0.0377,0.0365,0.0365,0.0359,0.0356,0.032,0.0288,0.0263,0.0202,0.0163,0.0116,0.009,0.0064,-0.0005,-0.0097,-0.0013,-0.0018,-0.0069,-0.0273,-0.0204,-0.0217,-0.0124,-0.0128,-0.0131,-0.0262,0,0.0373,0.0392,0.0403,0.04,0.0395,0.0374,0.0366,0.0327,0.0294,0.024,0.0167,0.0116,0.0107,0.0075,-0.0002,-0.0069,-0.015,-0.006,-0.0236,-0.0241,-0.0185,-0.0239,-0.0143,-0.0276,-0.0281,-0.0284,-0.0286,0,0.0395,0.0398,0.0402,0.0381,0.038,0.0382,0.0325,0.0316,0.024,0.0212,0.0125,0.0075,-0.003,-0.0027,-0.0202,-0.0142,-0.022,-0.0273,-0.028,-0.0248,-0.0209,-0.0255,-0.032,-0.0317,-0.0315,-0.0313,-0.0311,0,0.0364,0.0385,0.0376,0.0373,0.0364,0.0354,0.0347,0.0292,0.0276,0.018,0.0152,0.0013,-0.0036,-0.0178,-0.0262,-0.0252,-0.044,-0.0443,-0.0466,-0.046,-0.0492,-0.0479,-0.0607,-0.0607,-0.0607,-0.0607,-0.0606,0,0.0345,0.0334,0.0364,0.035,0.0342,0.0337,0.0317,0.0287,0.0247,0.0228,0.013,0.0089,-0.0079,-0.0184,-0.0293,-0.0415,-0.0474,-0.0497,-0.0508,-0.047,-0.0455,-0.0503,-0.0489,-0.0611,-0.061,-0.0609,-0.0609,0,0.0287,0.0306,0.0302,0.0315,0.0323,0.0312,0.0336,0.0329,0.0287,0.026,0.0233,0.0125,-0.0005,-0.0153,-0.0356,-0.0424,-0.0566,-0.06,-0.0524,-0.0524,-0.0527,-0.051,-0.0676,-0.0675,-0.0674,-0.0674,-0.0673,0,0.0248,0.0246,0.0284,0.0309,0.0322,0.033,0.0353,0.0339,0.0352,0.0298,0.0293,0.0163,0.0084,-0.0145,-0.031,-0.0534,-0.0553,-0.0629,-0.0621,-0.0549,-0.0544,-0.0528,-0.0513,-0.0672,-0.0672,-0.0672,-0.0671,0,0.0196,0.0228,0.0246,0.0302,0.034,0.0372,0.0411,0.042,0.0418,0.0383,0.0341,0.0212,0.0077,-0.0115,-0.0273,-0.0434,-0.0586,-0.0622,-0.0625,-0.0619,-0.0546,-0.0538,-0.0523,-0.0669,-0.0669,-0.0669,-0.0669,0,0.0192,0.0206,0.027,0.0311,0.0364,0.0416,0.0425,0.0463,0.0461,0.0422,0.0411,0.0252,0.0155,-0.0063,-0.0212,-0.0356,-0.0409,-0.0458,-0.0471,-0.0476,-0.0366,-0.0241,-0.0306,0,0,0,0,0,0.02,0.0237,0.0284,0.0343,0.0396,0.0422,0.0477,0.0492,0.0493,0.0481,0.045,0.033,0.0108,-0.0001,-0.0138,-0.0221,-0.0446,-0.0385,-0.0511,-0.0654,-0.0657,-0.0555,0,0,0,0,0,0,0.022,0.0272,0.029,0.0367,0.0405,0.0463,0.0495,0.0499,0.0495,0.0476,0.036,0.0299,0.0077,0.0183,-0.0143,-0.0189,-0.0285,-0.0496,-0.0499,-0.0652,-0.0655,-0.0657,-0.0553,0,0,0,0,0]}]]